Location: Fontevrault
(47.1823°N, 0.0493°E)
Time: 12:59:39
(UTC+00:00)

Cosmos 1455 Rocket - Pass Details

Date: 16 June 2021
Orbit: 605 x 629 km, 82.5° (Epoch: 30 July)

Event Time Altitude Azimuth Distance (km) Brightness Sun altitude
Rises 22:03:56 0° 342° (NNW) 2,924 8.3 -14.7°
Reaches altitude 10° 22:06:19 10° 333° (NNW) 2,015 7.1 -14.9°
Maximum altitude 22:10:20 34° 270° (W) 1,049 4.5 -15.2°
Enters shadow 22:14:00 12° 207° (SSW) 1,887 5.2 -15.5°
